User: anonymous   Login
Location: Unspecified
(0.0000°N, 0.0000°E)
Time: 03:46:07
(UTC+00:00)
Language:

CANX 3B (BRITE-ASRA) - Orbit

View from above orbital plane
View from above orbital plane
View from above satellite
View from above satellite

Ground track
Ground track

The orbit data is extracted from the following two-line orbital elements,

1 39091U 13009F   16179.54872493  .00000024  00000-0  23886-4 0  9998
2 39091  98.5787  21.2190 0009343 281.0361  78.9773 14.34980876174635
Epoch (UTC): 27 June 2016 13:10:09
Eccentricity: 0.0009343
inclination: 98.5787°
perigee height: 768 km
apogee height: 782 km
right ascension of ascending node: 21.2190°
argument of perigee: 281.0361°
revolutions per day: 14.34980876
mean anomaly at epoch: 78.9773°
orbit number at epoch: 17463

The dashed part of the orbit path shows where the satellite is in the earth's shadow,  

DLR